Year,Month,Day,Hour,Minute,Value (Times are PST for temperature in C)
2010,07,16,00,00,11.10
2010,07,16,00,01,11.10
2010,07,16,00,02,11.10
2010,07,16,00,03,11.00
2010,07,16,00,04,10.90
2010,07,16,00,05,10.90
2010,07,16,00,06,10.90
2010,07,16,00,07,10.90
2010,07,16,00,08,10.90
2010,07,16,00,09,10.90
2010,07,16,00,10,10.90
2010,07,16,00,11,10.90
2010,07,16,00,12,10.90
2010,07,16,00,13,10.90
2010,07,16,00,14,10.80
2010,07,16,00,15,10.80
2010,07,16,00,16,10.80
2010,07,16,00,17,10.80
2010,07,16,00,18,10.80
2010,07,16,00,19,10.70
2010,07,16,00,20,10.70
2010,07,16,00,21,10.70
2010,07,16,00,22,10.70
2010,07,16,00,23,10.70
2010,07,16,00,24,10.70
2010,07,16,00,25,10.70
2010,07,16,00,26,10.70
2010,07,16,00,27,10.60
2010,07,16,00,28,10.60
2010,07,16,00,29,10.60
2010,07,16,00,30,10.60
2010,07,16,00,31,10.60
2010,07,16,00,32,10.60
2010,07,16,00,33,10.60
2010,07,16,00,34,10.60
2010,07,16,00,35,10.60
2010,07,16,00,36,10.60
2010,07,16,00,37,10.60
2010,07,16,00,38,10.60
2010,07,16,00,39,10.60
2010,07,16,00,40,10.60
2010,07,16,00,41,10.60
2010,07,16,00,42,10.60
2010,07,16,00,43,10.60
2010,07,16,00,44,10.60
2010,07,16,00,45,10.60
2010,07,16,00,46,10.60
2010,07,16,00,47,10.50
2010,07,16,00,48,10.40
2010,07,16,00,49,10.40
2010,07,16,00,50,10.40
2010,07,16,00,51,10.40
2010,07,16,00,52,10.40
2010,07,16,00,53,10.40
2010,07,16,00,54,10.40
2010,07,16,00,55,10.40
2010,07,16,00,56,10.40
2010,07,16,00,57,10.30
2010,07,16,00,58,10.30
2010,07,16,00,59,10.30
2010,07,16,01,00,10.30
2010,07,16,01,01,10.30
2010,07,16,01,02,10.30
2010,07,16,01,03,10.30
2010,07,16,01,04,10.30
2010,07,16,01,05,10.30
2010,07,16,01,06,10.30
2010,07,16,01,07,10.30
2010,07,16,01,08,10.30
2010,07,16,01,09,10.30
2010,07,16,01,10,10.30
2010,07,16,01,11,10.30
2010,07,16,01,12,10.30
2010,07,16,01,13,10.30
2010,07,16,01,14,10.20
2010,07,16,01,15,10.20
2010,07,16,01,16,10.20
2010,07,16,01,17,10.20
2010,07,16,01,18,10.20
2010,07,16,01,19,10.20
2010,07,16,01,20,10.10
2010,07,16,01,21,10.10
2010,07,16,01,22,10.10
2010,07,16,01,23,10.10
2010,07,16,01,24,10.10
2010,07,16,01,25,9.90
2010,07,16,01,26,9.90
2010,07,16,01,27,9.90
2010,07,16,01,28,9.90
2010,07,16,01,29,9.90
2010,07,16,01,30,9.90
2010,07,16,01,31,9.90
2010,07,16,01,32,9.90
2010,07,16,01,33,9.90
2010,07,16,01,34,9.90
2010,07,16,01,35,9.90
2010,07,16,01,36,9.80
2010,07,16,01,37,9.80
2010,07,16,01,38,9.80
2010,07,16,01,39,9.80
2010,07,16,01,40,9.80
2010,07,16,01,41,9.70
2010,07,16,01,42,9.70
2010,07,16,01,43,9.70
2010,07,16,01,44,9.70
2010,07,16,01,45,9.70
2010,07,16,01,46,9.70
2010,07,16,01,47,9.60
2010,07,16,01,48,9.60
2010,07,16,01,49,9.60
2010,07,16,01,50,9.60
2010,07,16,01,51,9.50
2010,07,16,01,52,9.50
2010,07,16,01,53,9.50
2010,07,16,01,54,9.50
2010,07,16,01,55,9.50
2010,07,16,01,56,9.50
2010,07,16,01,57,9.40
2010,07,16,01,58,9.40
2010,07,16,01,59,9.40
2010,07,16,02,00,9.40
2010,07,16,02,01,9.40
2010,07,16,02,02,9.30
2010,07,16,02,03,9.30
2010,07,16,02,04,9.30
2010,07,16,02,05,9.30
2010,07,16,02,06,9.30
2010,07,16,02,07,9.30
2010,07,16,02,08,9.20
2010,07,16,02,09,9.20
2010,07,16,02,10,9.20
2010,07,16,02,11,9.20
2010,07,16,02,12,9.20
2010,07,16,02,13,9.20
2010,07,16,02,14,9.20
2010,07,16,02,15,9.20
2010,07,16,02,16,9.20
2010,07,16,02,17,9.10
2010,07,16,02,18,9.10
2010,07,16,02,19,9.10
2010,07,16,02,20,9.00
2010,07,16,02,21,9.00
2010,07,16,02,22,9.00
2010,07,16,02,23,9.00
2010,07,16,02,24,9.00
2010,07,16,02,25,8.90
2010,07,16,02,26,8.90
2010,07,16,02,27,8.90
2010,07,16,02,28,8.90
2010,07,16,02,29,8.90
2010,07,16,02,30,8.90
2010,07,16,02,31,8.90
2010,07,16,02,32,8.80
2010,07,16,02,33,8.80
2010,07,16,02,34,8.80
2010,07,16,02,35,8.80
2010,07,16,02,36,8.70
2010,07,16,02,37,8.70
2010,07,16,02,38,8.70
2010,07,16,02,39,8.70
2010,07,16,02,40,8.70
2010,07,16,02,41,8.70
2010,07,16,02,42,8.70
2010,07,16,02,43,8.70
2010,07,16,02,44,8.70
2010,07,16,02,45,8.70
2010,07,16,02,46,8.70
2010,07,16,02,47,8.70
2010,07,16,02,48,8.60
2010,07,16,02,49,8.60
2010,07,16,02,50,8.60
2010,07,16,02,51,8.60
2010,07,16,02,52,8.60
2010,07,16,02,53,8.60
2010,07,16,02,54,8.50
2010,07,16,02,55,8.50
2010,07,16,02,56,8.60
2010,07,16,02,57,8.60
2010,07,16,02,58,8.60
2010,07,16,02,59,8.70
2010,07,16,03,00,8.70
2010,07,16,03,01,8.70
2010,07,16,03,02,8.70
2010,07,16,03,03,8.70
2010,07,16,03,04,8.70
2010,07,16,03,05,8.70
2010,07,16,03,06,8.70
2010,07,16,03,07,8.70
2010,07,16,03,08,8.70
2010,07,16,03,09,8.70
2010,07,16,03,10,8.70
2010,07,16,03,11,8.70
2010,07,16,03,12,8.70
2010,07,16,03,13,8.70
2010,07,16,03,14,8.70
2010,07,16,03,15,8.60
2010,07,16,03,16,8.50
2010,07,16,03,17,8.50
2010,07,16,03,18,8.40
2010,07,16,03,19,8.40
2010,07,16,03,20,8.40
2010,07,16,03,21,8.40
2010,07,16,03,22,8.30
2010,07,16,03,23,8.30
2010,07,16,03,24,8.30
2010,07,16,03,25,8.30
2010,07,16,03,26,8.30
2010,07,16,03,27,8.20
2010,07,16,03,28,8.20
2010,07,16,03,29,8.20
2010,07,16,03,30,8.20
2010,07,16,03,31,8.20
2010,07,16,03,32,8.20
2010,07,16,03,33,8.20
2010,07,16,03,34,8.20
2010,07,16,03,35,8.20
2010,07,16,03,36,8.20
2010,07,16,03,37,8.20
2010,07,16,03,38,8.20
2010,07,16,03,39,8.20
2010,07,16,03,40,8.20
2010,07,16,03,41,8.20
2010,07,16,03,42,8.20
2010,07,16,03,43,8.20
2010,07,16,03,44,8.20
2010,07,16,03,45,8.20
2010,07,16,03,46,8.20
2010,07,16,03,47,8.10
2010,07,16,03,48,8.10
2010,07,16,03,49,8.10
2010,07,16,03,50,8.10
2010,07,16,03,51,8.10
2010,07,16,03,52,8.00
2010,07,16,03,53,8.00
2010,07,16,03,54,8.00
2010,07,16,03,55,8.00
2010,07,16,03,56,7.90
2010,07,16,03,57,7.90
2010,07,16,03,58,7.90
2010,07,16,03,59,7.90
2010,07,16,04,00,7.90
2010,07,16,04,01,7.90
2010,07,16,04,02,7.90
2010,07,16,04,03,7.90
2010,07,16,04,04,7.90
2010,07,16,04,05,7.90
2010,07,16,04,06,7.90
2010,07,16,04,07,7.90
2010,07,16,04,08,7.80
2010,07,16,04,09,7.80
2010,07,16,04,10,7.80
2010,07,16,04,11,7.80
2010,07,16,04,12,7.80
2010,07,16,04,13,7.80
2010,07,16,04,14,7.80
2010,07,16,04,15,7.80
2010,07,16,04,16,7.80
2010,07,16,04,17,7.80
2010,07,16,04,18,7.80
2010,07,16,04,19,7.80
2010,07,16,04,20,7.70
2010,07,16,04,21,7.70
2010,07,16,04,22,7.70
2010,07,16,04,23,7.70
2010,07,16,04,24,7.70
2010,07,16,04,25,7.70
2010,07,16,04,26,7.70
2010,07,16,04,27,7.70
2010,07,16,04,28,7.70
2010,07,16,04,29,7.60
2010,07,16,04,30,7.60
2010,07,16,04,31,7.60
2010,07,16,04,32,7.60
2010,07,16,04,33,7.60
2010,07,16,04,34,7.60
2010,07,16,04,35,7.60
2010,07,16,04,36,7.60
2010,07,16,04,37,7.60
2010,07,16,04,38,7.60
2010,07,16,04,39,7.60
2010,07,16,04,40,7.60
2010,07,16,04,41,7.60
2010,07,16,04,42,7.60
2010,07,16,04,43,7.60
2010,07,16,04,44,7.60
2010,07,16,04,45,7.60
2010,07,16,04,46,7.60
2010,07,16,04,47,7.60
2010,07,16,04,48,7.60
2010,07,16,04,49,7.60
2010,07,16,04,50,7.60
2010,07,16,04,51,7.60
2010,07,16,04,52,7.60
2010,07,16,04,53,7.60
2010,07,16,04,54,7.50
2010,07,16,04,55,7.50
2010,07,16,04,56,7.50
2010,07,16,04,57,7.50
2010,07,16,04,58,7.50
2010,07,16,04,59,7.40
2010,07,16,05,00,7.40
2010,07,16,05,01,7.40
2010,07,16,05,02,7.40
2010,07,16,05,03,7.40
2010,07,16,05,04,7.40
2010,07,16,05,05,7.40
2010,07,16,05,06,7.40
2010,07,16,05,07,7.40
2010,07,16,05,08,7.30
2010,07,16,05,09,7.30
2010,07,16,05,10,7.30
2010,07,16,05,11,7.30
2010,07,16,05,12,7.30
2010,07,16,05,13,7.30
2010,07,16,05,14,7.30
2010,07,16,05,15,7.30
2010,07,16,05,16,7.30
2010,07,16,05,17,7.30
2010,07,16,05,18,7.30
2010,07,16,05,19,7.30
2010,07,16,05,20,7.30
2010,07,16,05,21,7.30
2010,07,16,05,22,7.30
2010,07,16,05,23,7.30
2010,07,16,05,24,7.30
2010,07,16,05,25,7.30
2010,07,16,05,26,7.30
2010,07,16,05,27,7.30
2010,07,16,05,28,7.30
2010,07,16,05,29,7.30
2010,07,16,05,30,7.30
2010,07,16,05,31,7.30
2010,07,16,05,32,7.30
2010,07,16,05,33,7.30
2010,07,16,05,34,7.30
2010,07,16,05,35,7.30
2010,07,16,05,36,7.30
2010,07,16,05,37,7.30
2010,07,16,05,38,7.30
2010,07,16,05,39,7.40
2010,07,16,05,40,7.40
2010,07,16,05,41,7.40
2010,07,16,05,42,7.40
2010,07,16,05,43,7.40
2010,07,16,05,44,7.40
2010,07,16,05,45,7.40
2010,07,16,05,46,7.40
2010,07,16,05,47,7.40
2010,07,16,05,48,7.40
2010,07,16,05,49,7.40
2010,07,16,05,50,7.40
2010,07,16,05,51,7.40
2010,07,16,05,52,7.40
2010,07,16,05,53,7.40
2010,07,16,05,54,7.40
2010,07,16,05,55,7.40
2010,07,16,05,56,7.40
2010,07,16,05,57,7.40
2010,07,16,05,58,7.40
2010,07,16,05,59,7.40
2010,07,16,06,00,7.40
2010,07,16,06,01,7.30
2010,07,16,06,02,7.30
2010,07,16,06,03,7.30
2010,07,16,06,04,7.30
2010,07,16,06,05,7.30
2010,07,16,06,06,7.30
2010,07,16,06,07,7.30
2010,07,16,06,08,7.40
2010,07,16,06,09,7.40
2010,07,16,06,10,7.40
2010,07,16,06,11,7.40
2010,07,16,06,12,7.40
2010,07,16,06,13,7.50
2010,07,16,06,14,7.60
2010,07,16,06,15,7.60
2010,07,16,06,16,7.60
2010,07,16,06,17,7.70
2010,07,16,06,18,7.70
2010,07,16,06,19,7.70
2010,07,16,06,20,7.70
2010,07,16,06,21,7.70
2010,07,16,06,22,7.70
2010,07,16,06,23,7.80
2010,07,16,06,24,7.80
2010,07,16,06,25,7.80
2010,07,16,06,26,7.80
2010,07,16,06,27,7.80
2010,07,16,06,28,7.80
2010,07,16,06,29,7.90
2010,07,16,06,30,7.90
2010,07,16,06,31,8.00
2010,07,16,06,32,8.00
2010,07,16,06,33,8.00
2010,07,16,06,34,8.10
2010,07,16,06,35,8.10
2010,07,16,06,36,8.20
2010,07,16,06,37,8.20
2010,07,16,06,38,8.30
2010,07,16,06,39,8.30
2010,07,16,06,40,8.30
2010,07,16,06,41,8.30
2010,07,16,06,42,8.30
2010,07,16,06,43,8.30
2010,07,16,06,44,8.30
2010,07,16,06,45,8.30
2010,07,16,06,46,8.20
2010,07,16,06,47,8.20
2010,07,16,06,48,8.20
2010,07,16,06,49,8.20
2010,07,16,06,50,8.30
2010,07,16,06,51,8.30
2010,07,16,06,52,8.30
2010,07,16,06,53,8.40
2010,07,16,06,54,8.40
2010,07,16,06,55,8.40
2010,07,16,06,56,8.50
2010,07,16,06,57,8.50
2010,07,16,06,58,8.50
2010,07,16,06,59,8.60
2010,07,16,07,00,8.60
2010,07,16,07,01,8.60
2010,07,16,07,02,8.60
2010,07,16,07,03,8.70
2010,07,16,07,04,8.70
2010,07,16,07,05,8.70
2010,07,16,07,06,8.80
2010,07,16,07,07,8.80
2010,07,16,07,08,8.90
2010,07,16,07,09,8.90
2010,07,16,07,10,9.00
2010,07,16,07,11,9.10
2010,07,16,07,12,9.20
2010,07,16,07,13,9.20
2010,07,16,07,14,9.30
2010,07,16,07,15,9.40
2010,07,16,07,16,9.40
2010,07,16,07,17,9.50
2010,07,16,07,18,9.60
2010,07,16,07,19,9.70
2010,07,16,07,20,9.70
2010,07,16,07,21,9.80
2010,07,16,07,22,9.90
2010,07,16,07,23,9.90
2010,07,16,07,24,10.00
2010,07,16,07,25,10.10
2010,07,16,07,26,10.20
2010,07,16,07,27,10.30
2010,07,16,07,28,10.30
2010,07,16,07,29,10.40
2010,07,16,07,30,10.40
2010,07,16,07,31,10.40
2010,07,16,07,32,10.60
2010,07,16,07,33,10.60
2010,07,16,07,34,10.60
2010,07,16,07,35,10.60
2010,07,16,07,36,10.60
2010,07,16,07,37,10.70
2010,07,16,07,38,10.70
2010,07,16,07,39,10.80
2010,07,16,07,40,10.80
2010,07,16,07,41,10.90
2010,07,16,07,42,10.90
2010,07,16,07,43,11.00
2010,07,16,07,44,11.10
2010,07,16,07,45,11.10
2010,07,16,07,46,11.10
2010,07,16,07,47,11.20
2010,07,16,07,48,11.30
2010,07,16,07,49,11.30
2010,07,16,07,50,11.40
2010,07,16,07,51,11.50
2010,07,16,07,52,11.60
2010,07,16,07,53,11.60
2010,07,16,07,54,11.70
2010,07,16,07,55,11.80
2010,07,16,07,56,11.80
2010,07,16,07,57,11.90
2010,07,16,07,58,12.00
2010,07,16,07,59,12.00
2010,07,16,08,00,12.10
2010,07,16,08,01,12.20
2010,07,16,08,02,12.20
2010,07,16,08,03,12.30
2010,07,16,08,04,12.30
2010,07,16,08,05,12.40
2010,07,16,08,06,12.40
2010,07,16,08,07,12.50
2010,07,16,08,08,12.60
2010,07,16,08,09,12.60
2010,07,16,08,10,12.70
2010,07,16,08,11,12.80
2010,07,16,08,12,12.80
2010,07,16,08,13,12.90
2010,07,16,08,14,13.00
2010,07,16,08,15,13.10
2010,07,16,08,16,13.20
2010,07,16,08,17,13.20
2010,07,16,08,18,13.30
2010,07,16,08,19,13.40
2010,07,16,08,20,13.40
2010,07,16,08,21,13.50
2010,07,16,08,22,13.50
2010,07,16,08,23,13.50
2010,07,16,08,24,13.60
2010,07,16,08,25,13.60
2010,07,16,08,26,13.70
2010,07,16,08,27,13.70
2010,07,16,08,28,13.80
2010,07,16,08,29,13.90
2010,07,16,08,30,14.00
2010,07,16,08,31,14.10
2010,07,16,08,32,14.20
2010,07,16,08,33,14.40
2010,07,16,08,34,14.50
2010,07,16,08,35,14.70
2010,07,16,08,36,14.80
2010,07,16,08,37,14.90
2010,07,16,08,38,15.00
2010,07,16,08,39,15.00
2010,07,16,08,40,15.10
2010,07,16,08,41,15.00
2010,07,16,08,42,15.00
2010,07,16,08,43,14.90
2010,07,16,08,44,14.80
2010,07,16,08,45,14.80
2010,07,16,08,46,14.90
2010,07,16,08,47,14.90
2010,07,16,08,48,14.90
2010,07,16,08,49,15.00
2010,07,16,08,50,15.10
2010,07,16,08,51,15.10
2010,07,16,08,52,15.20
2010,07,16,08,53,15.20
2010,07,16,08,54,15.20
2010,07,16,08,55,15.20
2010,07,16,08,56,15.30
2010,07,16,08,57,15.30
2010,07,16,08,58,15.30
2010,07,16,08,59,15.30
2010,07,16,09,00,15.30
2010,07,16,09,01,15.30
2010,07,16,09,02,15.30
2010,07,16,09,03,15.30
2010,07,16,09,04,15.30
2010,07,16,09,05,15.30
2010,07,16,09,06,15.30
2010,07,16,09,07,15.30
2010,07,16,09,08,15.30
2010,07,16,09,09,15.30
2010,07,16,09,10,15.30
2010,07,16,09,11,15.40
2010,07,16,09,12,15.50
2010,07,16,09,13,15.50
2010,07,16,09,14,15.60
2010,07,16,09,15,15.50
2010,07,16,09,16,15.40
2010,07,16,09,17,15.30
2010,07,16,09,18,15.30
2010,07,16,09,19,15.30
2010,07,16,09,20,15.30
2010,07,16,09,21,15.30
2010,07,16,09,22,15.30
2010,07,16,09,23,15.30
2010,07,16,09,24,15.30
2010,07,16,09,25,15.30
2010,07,16,09,26,15.40
2010,07,16,09,27,15.40
2010,07,16,09,28,15.40
2010,07,16,09,29,15.50
2010,07,16,09,30,15.50
2010,07,16,09,31,15.40
2010,07,16,09,32,15.40
2010,07,16,09,33,15.50
2010,07,16,09,34,15.50
2010,07,16,09,35,15.50
2010,07,16,09,36,15.50
2010,07,16,09,37,15.50
2010,07,16,09,38,15.60
2010,07,16,09,39,15.60
2010,07,16,09,40,15.60
2010,07,16,09,41,15.60
2010,07,16,09,42,15.60
2010,07,16,09,43,15.60
2010,07,16,09,44,15.60
2010,07,16,09,45,15.70
2010,07,16,09,46,15.70
2010,07,16,09,47,15.80
2010,07,16,09,48,15.80
2010,07,16,09,49,15.80
2010,07,16,09,50,15.90
2010,07,16,09,51,16.00
2010,07,16,09,52,16.10
2010,07,16,09,53,16.10
2010,07,16,09,54,16.00
2010,07,16,09,55,15.90
2010,07,16,09,56,15.90
2010,07,16,09,57,15.90
2010,07,16,09,58,15.80
2010,07,16,09,59,15.80
2010,07,16,10,00,15.80
2010,07,16,10,01,15.70
2010,07,16,10,02,15.70
2010,07,16,10,03,15.60
2010,07,16,10,04,15.60
2010,07,16,10,05,15.70
2010,07,16,10,06,15.70
2010,07,16,10,07,15.70
2010,07,16,10,08,15.70
2010,07,16,10,09,15.70
2010,07,16,10,10,15.80
2010,07,16,10,11,15.70
2010,07,16,10,12,15.70
2010,07,16,10,13,15.60
2010,07,16,10,14,15.50
2010,07,16,10,15,15.50
2010,07,16,10,16,15.50
2010,07,16,10,17,15.50
2010,07,16,10,18,15.40
2010,07,16,10,19,15.40
2010,07,16,10,20,15.30
2010,07,16,10,21,15.30
2010,07,16,10,22,15.30
2010,07,16,10,23,15.30
2010,07,16,10,24,15.20
2010,07,16,10,25,15.20
2010,07,16,10,26,15.20
2010,07,16,10,27,15.20
2010,07,16,10,28,15.20
2010,07,16,10,29,15.20
2010,07,16,10,30,15.20
2010,07,16,10,31,15.20
2010,07,16,10,32,15.30
2010,07,16,10,33,15.30
2010,07,16,10,34,15.50
2010,07,16,10,35,15.60
2010,07,16,10,36,15.60
2010,07,16,10,37,15.70
2010,07,16,10,38,15.70
2010,07,16,10,39,15.80
2010,07,16,10,40,15.80
2010,07,16,10,41,15.80
2010,07,16,10,42,15.80
2010,07,16,10,43,15.80
2010,07,16,10,44,15.80
2010,07,16,10,45,15.80
2010,07,16,10,46,15.90
2010,07,16,10,47,15.90
2010,07,16,10,48,16.10
2010,07,16,10,49,16.10
2010,07,16,10,50,16.20
2010,07,16,10,51,16.20
2010,07,16,10,52,16.20
2010,07,16,10,53,16.30
2010,07,16,10,54,16.30
2010,07,16,10,55,16.10
2010,07,16,10,56,16.10
2010,07,16,10,57,16.10
2010,07,16,10,58,16.10
2010,07,16,10,59,16.20
2010,07,16,11,00,16.20
2010,07,16,11,01,16.20
2010,07,16,11,02,16.10
2010,07,16,11,03,16.10
2010,07,16,11,04,16.10
2010,07,16,11,05,16.10
2010,07,16,11,06,16.10
2010,07,16,11,07,16.10
2010,07,16,11,08,16.20
2010,07,16,11,09,16.20
2010,07,16,11,10,16.30
2010,07,16,11,11,16.30
2010,07,16,11,12,16.40
2010,07,16,11,13,16.40
2010,07,16,11,14,16.40
2010,07,16,11,15,16.50
2010,07,16,11,16,16.60
2010,07,16,11,17,16.60
2010,07,16,11,18,16.60
2010,07,16,11,19,16.40
2010,07,16,11,20,16.40
2010,07,16,11,21,16.40
2010,07,16,11,22,16.40
2010,07,16,11,23,16.30
2010,07,16,11,24,16.30
2010,07,16,11,25,16.40
2010,07,16,11,26,16.40
2010,07,16,11,27,16.40
2010,07,16,11,28,16.30
2010,07,16,11,29,16.30
2010,07,16,11,30,16.20
2010,07,16,11,31,16.20
2010,07,16,11,32,16.40
2010,07,16,11,33,16.40
2010,07,16,11,34,16.40
2010,07,16,11,35,16.40
2010,07,16,11,36,16.40
2010,07,16,11,37,16.60
2010,07,16,11,38,16.60
2010,07,16,11,39,16.60
2010,07,16,11,40,16.60
2010,07,16,11,41,16.60
2010,07,16,11,42,16.50
2010,07,16,11,43,16.40
2010,07,16,11,44,16.40
2010,07,16,11,45,16.40
2010,07,16,11,46,16.40
2010,07,16,11,47,16.40
2010,07,16,11,48,16.30
2010,07,16,11,49,16.30
2010,07,16,11,50,16.30
2010,07,16,11,51,16.30
2010,07,16,11,52,16.40
2010,07,16,11,53,16.30
2010,07,16,11,54,16.30
2010,07,16,11,55,16.30
2010,07,16,11,56,16.40
2010,07,16,11,57,16.40
2010,07,16,11,58,16.40
2010,07,16,11,59,16.40
2010,07,16,12,00,16.40
2010,07,16,12,01,16.40
2010,07,16,12,02,16.40
2010,07,16,12,03,16.40
2010,07,16,12,04,16.40
2010,07,16,12,05,16.40
2010,07,16,12,06,16.40
2010,07,16,12,07,16.30
2010,07,16,12,08,16.40
2010,07,16,12,09,16.40
2010,07,16,12,10,16.50
2010,07,16,12,11,16.60
2010,07,16,12,12,16.70
2010,07,16,12,13,16.70
2010,07,16,12,14,16.80
2010,07,16,12,15,16.80
2010,07,16,12,16,16.70
2010,07,16,12,17,16.70
2010,07,16,12,18,16.70
2010,07,16,12,19,16.70
2010,07,16,12,20,16.50
2010,07,16,12,21,16.40
2010,07,16,12,22,16.60
2010,07,16,12,23,16.70
2010,07,16,12,24,16.70
2010,07,16,12,25,16.80
2010,07,16,12,26,16.90
2010,07,16,12,27,17.00
2010,07,16,12,28,17.10
2010,07,16,12,29,17.20
2010,07,16,12,30,17.30
2010,07,16,12,31,17.40
2010,07,16,12,32,17.40
2010,07,16,12,33,17.40
2010,07,16,12,34,17.40
2010,07,16,12,35,17.30
2010,07,16,12,36,17.30
2010,07,16,12,37,17.30
2010,07,16,12,38,17.10
2010,07,16,12,39,17.00
2010,07,16,12,40,16.90
2010,07,16,12,41,16.80
2010,07,16,12,42,16.80
2010,07,16,12,43,16.80
2010,07,16,12,44,16.80
2010,07,16,12,45,16.80
2010,07,16,12,46,16.80
2010,07,16,12,47,16.70
2010,07,16,12,48,16.70
2010,07,16,12,49,16.70
2010,07,16,12,50,16.70
2010,07,16,12,51,16.70
2010,07,16,12,52,16.70
2010,07,16,12,53,16.70
2010,07,16,12,54,16.70
2010,07,16,12,55,16.80
2010,07,16,12,56,16.80
2010,07,16,12,57,16.70
2010,07,16,12,58,16.70
2010,07,16,12,59,16.70
2010,07,16,13,00,16.70
2010,07,16,13,01,16.70
2010,07,16,13,02,16.70
2010,07,16,13,03,16.60
2010,07,16,13,04,16.50
2010,07,16,13,05,16.40
2010,07,16,13,06,16.40
2010,07,16,13,07,16.50
2010,07,16,13,08,16.60
2010,07,16,13,09,16.80
2010,07,16,13,10,16.90
2010,07,16,13,11,16.90
2010,07,16,13,12,16.80
2010,07,16,13,13,16.70
2010,07,16,13,14,16.70
2010,07,16,13,15,16.70
2010,07,16,13,16,16.70
2010,07,16,13,17,16.70
2010,07,16,13,18,16.70
2010,07,16,13,19,16.70
2010,07,16,13,20,16.70
2010,07,16,13,21,16.70
2010,07,16,13,22,16.80
2010,07,16,13,23,16.90
2010,07,16,13,24,17.00
2010,07,16,13,25,17.00
2010,07,16,13,26,16.90
2010,07,16,13,27,16.80
2010,07,16,13,28,16.70
2010,07,16,13,29,16.70
2010,07,16,13,30,16.70
2010,07,16,13,31,16.70
2010,07,16,13,32,16.70
2010,07,16,13,33,16.50
2010,07,16,13,34,16.40
2010,07,16,13,35,16.40
2010,07,16,13,36,16.30
2010,07,16,13,37,16.30
2010,07,16,13,38,16.30
2010,07,16,13,39,16.30
2010,07,16,13,40,16.20
2010,07,16,13,41,16.20
2010,07,16,13,42,16.10
2010,07,16,13,43,16.00
2010,07,16,13,44,15.80
2010,07,16,13,45,15.80
2010,07,16,13,46,15.70
2010,07,16,13,47,15.70
2010,07,16,13,48,15.70
2010,07,16,13,49,15.70
2010,07,16,13,50,15.80
2010,07,16,13,51,15.80
2010,07,16,13,52,15.80
2010,07,16,13,53,15.80
2010,07,16,13,54,15.80
2010,07,16,13,55,15.80
2010,07,16,13,56,15.90
2010,07,16,13,57,16.00
2010,07,16,13,58,16.10
2010,07,16,13,59,16.20
2010,07,16,14,00,16.30
2010,07,16,14,01,16.40
2010,07,16,14,02,16.50
2010,07,16,14,03,16.60
2010,07,16,14,04,16.70
2010,07,16,14,05,16.70
2010,07,16,14,06,16.70
2010,07,16,14,07,16.60
2010,07,16,14,08,16.60
2010,07,16,14,09,16.60
2010,07,16,14,10,16.60
2010,07,16,14,11,16.60
2010,07,16,14,12,16.60
2010,07,16,14,13,16.60
2010,07,16,14,14,16.70
2010,07,16,14,15,16.70
2010,07,16,14,16,16.70
2010,07,16,14,17,16.70
2010,07,16,14,18,16.70
2010,07,16,14,19,16.80
2010,07,16,14,20,16.80
2010,07,16,14,21,16.70
2010,07,16,14,22,16.70
2010,07,16,14,23,16.70
2010,07,16,14,24,16.70
2010,07,16,14,25,16.60
2010,07,16,14,26,16.60
2010,07,16,14,27,16.70
2010,07,16,14,28,16.50
2010,07,16,14,29,16.40
2010,07,16,14,30,16.40
2010,07,16,14,31,16.40
2010,07,16,14,32,16.50
2010,07,16,14,33,16.70
2010,07,16,14,34,16.70
2010,07,16,14,35,16.70
2010,07,16,14,36,16.60
2010,07,16,14,37,16.60
2010,07,16,14,38,16.60
2010,07,16,14,39,16.60
2010,07,16,14,40,16.70
2010,07,16,14,41,16.70
2010,07,16,14,42,16.70
2010,07,16,14,43,16.90
2010,07,16,14,44,17.00
2010,07,16,14,45,17.20
2010,07,16,14,46,17.30
2010,07,16,14,47,17.40
2010,07,16,14,48,17.40
2010,07,16,14,49,17.40
2010,07,16,14,50,17.50
2010,07,16,14,51,17.60
2010,07,16,14,52,17.50
2010,07,16,14,53,17.50
2010,07,16,14,54,17.50
2010,07,16,14,55,17.60
2010,07,16,14,56,17.50
2010,07,16,14,57,17.50
2010,07,16,14,58,17.60
2010,07,16,14,59,17.60
2010,07,16,15,00,17.60
2010,07,16,15,01,17.60
2010,07,16,15,02,17.60
2010,07,16,15,03,17.70
2010,07,16,15,04,17.70
2010,07,16,15,05,17.80
2010,07,16,15,06,17.80
2010,07,16,15,07,17.80
2010,07,16,15,08,17.70
2010,07,16,15,09,17.60
2010,07,16,15,10,17.40
2010,07,16,15,11,17.40
2010,07,16,15,12,17.50
2010,07,16,15,13,17.50
2010,07,16,15,14,17.50
2010,07,16,15,15,17.50
2010,07,16,15,16,17.50
2010,07,16,15,17,17.50
2010,07,16,15,18,17.50
2010,07,16,15,19,17.40
2010,07,16,15,20,17.40
2010,07,16,15,21,17.30
2010,07,16,15,22,17.30
2010,07,16,15,23,17.30
2010,07,16,15,24,17.20
2010,07,16,15,25,17.20
2010,07,16,15,26,17.20
2010,07,16,15,27,17.20
2010,07,16,15,28,17.10
2010,07,16,15,29,17.10
2010,07,16,15,30,17.10
2010,07,16,15,31,17.20
2010,07,16,15,32,17.30
2010,07,16,15,33,17.30
2010,07,16,15,34,17.30
2010,07,16,15,35,17.30
2010,07,16,15,36,17.20
2010,07,16,15,37,17.20
2010,07,16,15,38,17.20
2010,07,16,15,39,17.30
2010,07,16,15,40,17.30
2010,07,16,15,41,17.20
2010,07,16,15,42,17.20
2010,07,16,15,43,17.20
2010,07,16,15,44,17.20
2010,07,16,15,45,17.20
2010,07,16,15,46,17.30
2010,07,16,15,47,17.30
2010,07,16,15,48,17.20
2010,07,16,15,49,17.20
2010,07,16,15,50,17.30
2010,07,16,15,51,17.30
2010,07,16,15,52,17.30
2010,07,16,15,53,17.20
2010,07,16,15,54,17.30
2010,07,16,15,55,17.30
2010,07,16,15,56,17.40
2010,07,16,15,57,17.40
2010,07,16,15,58,17.40
2010,07,16,15,59,17.40
2010,07,16,16,00,17.40
2010,07,16,16,01,17.30
2010,07,16,16,02,17.20
2010,07,16,16,03,17.00
2010,07,16,16,04,16.90
2010,07,16,16,05,16.80
2010,07,16,16,06,16.70
2010,07,16,16,07,16.70
2010,07,16,16,08,16.70
2010,07,16,16,09,16.70
2010,07,16,16,10,16.70
2010,07,16,16,11,16.70
2010,07,16,16,12,16.70
2010,07,16,16,13,16.60
2010,07,16,16,14,16.40
2010,07,16,16,15,16.40
2010,07,16,16,16,16.40
2010,07,16,16,17,16.30
2010,07,16,16,18,16.10
2010,07,16,16,19,15.90
2010,07,16,16,20,15.80
2010,07,16,16,21,15.70
2010,07,16,16,22,15.60
2010,07,16,16,23,15.50
2010,07,16,16,24,15.40
2010,07,16,16,25,15.30
2010,07,16,16,26,15.30
2010,07,16,16,27,15.30
2010,07,16,16,28,15.30
2010,07,16,16,29,15.30
2010,07,16,16,30,15.30
2010,07,16,16,31,15.30
2010,07,16,16,32,15.30
2010,07,16,16,33,15.30
2010,07,16,16,34,15.20
2010,07,16,16,35,15.20
2010,07,16,16,36,15.20
2010,07,16,16,37,15.20
2010,07,16,16,38,15.20
2010,07,16,16,39,15.20
2010,07,16,16,40,15.10
2010,07,16,16,41,15.10
2010,07,16,16,42,15.20
2010,07,16,16,43,15.20
2010,07,16,16,44,15.20
2010,07,16,16,45,15.10
2010,07,16,16,46,15.10
2010,07,16,16,47,15.00
2010,07,16,16,48,15.00
2010,07,16,16,49,15.00
2010,07,16,16,50,15.00
2010,07,16,16,51,14.90
2010,07,16,16,52,14.90
2010,07,16,16,53,14.90
2010,07,16,16,54,14.80
2010,07,16,16,55,14.80
2010,07,16,16,56,14.80
2010,07,16,16,57,14.80
2010,07,16,16,58,14.80
2010,07,16,16,59,14.80
2010,07,16,17,00,14.80
2010,07,16,17,01,14.80
2010,07,16,17,02,14.80
2010,07,16,17,03,14.80
2010,07,16,17,04,14.80
2010,07,16,17,05,14.90
2010,07,16,17,06,14.90
2010,07,16,17,07,14.90
2010,07,16,17,08,14.90
2010,07,16,17,09,14.90
2010,07,16,17,10,14.90
2010,07,16,17,11,14.90
2010,07,16,17,12,14.90
2010,07,16,17,13,14.90
2010,07,16,17,14,14.90
2010,07,16,17,15,15.00
2010,07,16,17,16,15.00
2010,07,16,17,17,15.00
2010,07,16,17,18,14.90
2010,07,16,17,19,14.90
2010,07,16,17,20,14.80
2010,07,16,17,21,14.90
2010,07,16,17,22,14.80
2010,07,16,17,23,14.90
2010,07,16,17,24,14.90
2010,07,16,17,25,14.90
2010,07,16,17,26,15.00
2010,07,16,17,27,15.00
2010,07,16,17,28,15.10
2010,07,16,17,29,15.10
2010,07,16,17,30,15.20
2010,07,16,17,31,15.20
2010,07,16,17,32,15.20
2010,07,16,17,33,15.10
2010,07,16,17,34,15.10
2010,07,16,17,35,15.10